Terminal Aerodrome Forecast
Issued by NWS Sterling, VA

Home | Current Version | Previous Version | Text Only | Print | Product List | Glossary On
Versions: 1 2 3 4 5 6 7 8 9 10 11 12 13 14 15 16 17 18 19 20 21 22 23 24 25 26
655
FTUS41 KLWX 280046 AAB
TAFDCA
TAF AMD
KDCA 280046Z 2801/2824 17006KT P6SM VCTS SCT040CB OVC220
     FM281000 27004KT P6SM BKN100
     FM281200 VRB04KT 5SM -SHRA OVC050
     FM281700 18005KT P6SM -SHRA OVC030
     FM282300 09006KT 3SM +SHRA OVC030=

USA.gov is the U.S. government's official web portal to all federal, state and local government web resources and services.